Weather History for Newport Airport, OR

Change the Weather History Date:

Thursday, May 1, 2014

  Actual Average Record
Temperature  
Mean Temperature 65 °F -  
Max Temperature 77 °F 54 °F 77 °F (2014)
Min Temperature 53 °F 44 °F 33 °F (2013)
Growing Degree Days 15 (Base 50)    
Moisture  
Dew Point 45 °F    
Average Humidity 53    
Maximum Humidity 100    
Minimum Humidity 25    
Precipitation  
Precipitation 0.00 in - - ()
Sea Level Pressure  
Sea Level Pressure 30.07 in    
Wind  
Wind Speed 8 mph (South)    
Max Wind Speed 20 mph    
Max Gust Speed 25 mph    
Visibility 10 miles    
Events      
Averages and records for this station are not official NWS values.
T = Trace of Precipitation, MM = Missing Value Source: NWS Daily Summary

Daily Weather History Graph

Daily Weather History Graph

Search for Another Location

Airport:

Trip Planner

Search our weather history database for the weather conditions in past years. The results will help you decide how hot, cold, wet, or windy it might be!

Date:

Astronomy

May. 01, 2014 Rise Set
Actual Time 6:06 AM PDT 8:21 PM PDT
Civil Twilight 5:34 AM PDT 8:53 PM PDT
Nautical Twilight 4:54 AM PDT 9:33 PM PDT
Astronomical Twilight 4:10 AM PDT 10:17 PM PDT
Moon 7:56 AM PDT (5/1) 11:01 PM PDT (5/1)
Length of Visible Light 15h 18m
Length of Day
14h 14m
Waxing Crescent, 7% of the Moon is Illuminated
May 1
Waxing Crescent
May 6
First Quarter
May 14
Full
May 21
Last Quarter
May 28
New

Hourly Weather History & Observations

Time (PDT) Temp. Dew Point Humidity Pressure Visibility Wind Dir Wind Speed Gust Speed Precip Events Conditions
12:15 AM 71.6 °F 41.0 °F 33% 30.02 in 10.0 mi East 10.4 mph - N/A   Clear
12:35 AM 64.4 °F 42.8 °F 45% 30.04 in 10.0 mi South 6.9 mph - N/A   Clear
12:55 AM 66.2 °F 42.8 °F 43% 30.04 in 10.0 mi ESE 3.5 mph - N/A   Clear
1:15 AM 60.8 °F 46.4 °F 59% 30.04 in 10.0 mi Calm Calm - N/A   Clear
1:35 AM 55.4 °F 46.4 °F 72% 30.04 in 10.0 mi Calm Calm - N/A   Clear
1:55 AM 55.4 °F 46.4 °F 72% 30.04 in 10.0 mi East 4.6 mph - N/A   Clear
2:15 AM 55.4 °F 46.4 °F 72% 30.04 in 10.0 mi SE 3.5 mph - N/A   Clear
2:35 AM 55.4 °F 46.4 °F 72% 30.04 in 10.0 mi Calm Calm - N/A   Clear
2:55 AM 57.2 °F 46.4 °F 67% 30.04 in 10.0 mi Calm Calm - N/A   Clear
3:15 AM 53.6 °F 46.4 °F 77% 30.04 in 10.0 mi ESE 4.6 mph - N/A   Clear
3:35 AM 53.6 °F 46.4 °F 77% 30.04 in 10.0 mi East 4.6 mph - N/A   Clear
3:55 AM 59.0 °F 44.6 °F 59% 30.03 in 10.0 mi East 4.6 mph - N/A   Clear
4:15 AM 57.2 °F 44.6 °F 63% 30.03 in 10.0 mi East 6.9 mph - N/A   Clear
4:35 AM 59.0 °F 42.8 °F 55% 30.03 in 10.0 mi East 6.9 mph - N/A   Clear
5:15 AM 59.0 °F 42.8 °F 55% 30.03 in 10.0 mi East 3.5 mph - N/A   Clear
5:35 AM 60.8 °F 42.8 °F 52% 30.03 in 10.0 mi East 4.6 mph - N/A   Clear
5:55 AM 59.0 °F 42.8 °F 55% 30.02 in 10.0 mi East 9.2 mph - N/A   Clear
6:15 AM 59.0 °F 42.8 °F 55% 30.01 in 10.0 mi East 11.5 mph - N/A   Clear
6:35 AM 60.8 °F 42.8 °F 52% 30.02 in 10.0 mi East 9.2 mph - N/A   Clear
6:55 AM 60.8 °F 42.8 °F 52% 30.03 in 10.0 mi ESE 8.1 mph - N/A   Clear
7:15 AM 62.6 °F 42.8 °F 48% 30.03 in 10.0 mi ENE 3.5 mph - N/A   Clear
8:15 AM 66.2 °F 44.6 °F 46% 30.04 in 10.0 mi East 8.1 mph - N/A   Clear
8:35 AM 68.0 °F 44.6 °F 43% 30.04 in 10.0 mi East 6.9 mph - N/A   Clear
8:55 AM 68.0 °F 44.6 °F 43% 30.04 in 10.0 mi East 6.9 mph - N/A   Clear
9:15 AM 71.6 °F 46.4 °F 41% 30.04 in 10.0 mi East 5.8 mph - N/A   Clear
9:35 AM 73.4 °F 46.4 °F 38% 30.04 in 10.0 mi East 3.5 mph - N/A   Clear
9:55 AM 75.2 °F 46.4 °F 36% 30.04 in 10.0 mi East 3.5 mph - N/A   Clear
10:15 AM 77.0 °F 46.4 °F 34% 30.04 in 10.0 mi Calm Calm - N/A   Clear
10:35 AM 77.0 °F 50.0 °F 39% 30.04 in 10.0 mi WSW 3.5 mph - N/A   Clear
11:15 AM 75.2 °F 50.0 °F 41% 30.05 in 10.0 mi WSW 4.6 mph - N/A   Clear
11:35 AM 77.0 °F 44.6 °F 32% 30.06 in 10.0 mi SW 6.9 mph - N/A   Clear
11:55 AM 77.0 °F 42.8 °F 29% 30.06 in 10.0 mi SSW 6.9 mph - N/A   Clear
12:15 PM 77.0 °F 39.2 °F 26% 30.06 in 10.0 mi SW 8.1 mph - N/A   Clear
12:35 PM 77.0 °F 39.2 °F 26% 30.06 in 10.0 mi SW 10.4 mph - N/A   Clear
1:15 PM 75.2 °F 41.0 °F 29% 30.07 in 10.0 mi SW 11.5 mph - N/A   Clear
1:35 PM 73.4 °F 42.8 °F 33% 30.08 in 10.0 mi SW 11.5 mph - N/A   Clear
1:55 PM 71.6 °F 42.8 °F 35% 30.08 in 10.0 mi SSW 10.4 mph - N/A   Clear
2:15 PM 71.6 °F 46.4 °F 41% 30.08 in 10.0 mi SSW 10.4 mph - N/A   Clear
2:35 PM 71.6 °F 42.8 °F 35% 30.08 in 10.0 mi SW 10.4 mph - N/A   Clear
3:15 PM 73.4 °F 41.0 °F 31% 30.08 in 10.0 mi SSW 13.8 mph - N/A   Clear
3:35 PM 73.4 °F 39.2 °F 29% 30.08 in 10.0 mi SW 11.5 mph 20.7 mph N/A   Clear
3:55 PM 71.6 °F 41.0 °F 33% 30.09 in 10.0 mi SSW 11.5 mph 17.3 mph N/A   Clear
4:15 PM 73.4 °F 39.2 °F 29% 30.08 in 10.0 mi SSW 15.0 mph 20.7 mph N/A   Clear
4:35 PM 75.2 °F 37.4 °F 25% 30.08 in 10.0 mi SSW 15.0 mph 19.6 mph N/A   Clear
4:55 PM 73.4 °F 41.0 °F 31% 30.08 in 10.0 mi SSW 16.1 mph 19.6 mph N/A   Clear
5:15 PM 73.4 °F 41.0 °F 31% 30.07 in 10.0 mi SSW 11.5 mph 20.7 mph N/A   Clear
5:35 PM 73.4 °F 41.0 °F 31% 30.07 in 10.0 mi SSW 16.1 mph - N/A   Clear
5:55 PM 73.4 °F 41.0 °F 31% 30.07 in 10.0 mi SSW 17.3 mph 23.0 mph N/A   Clear
6:15 PM 71.6 °F 41.0 °F 33% 30.07 in 10.0 mi SSW 15.0 mph 21.9 mph N/A   Clear
6:35 PM 69.8 °F 42.8 °F 38% 30.07 in 10.0 mi SSW 16.1 mph 23.0 mph N/A   Clear
6:55 PM 68.0 °F 44.6 °F 43% 30.07 in 10.0 mi SSW 19.6 mph 23.0 mph N/A   Clear
7:15 PM 66.2 °F 46.4 °F 49% 30.07 in 10.0 mi SSW 16.1 mph 25.3 mph N/A   Clear
7:35 PM 64.4 °F 46.4 °F 52% 30.07 in 10.0 mi SSW 16.1 mph - N/A   Clear
7:55 PM 62.6 °F 48.2 °F 59% 30.08 in 10.0 mi SSW 15.0 mph 23.0 mph N/A   Clear
8:15 PM 60.8 °F 50.0 °F 68% 30.09 in 10.0 mi SSW 17.3 mph 24.2 mph N/A   Clear
8:35 PM 59.0 °F 50.0 °F 72% 30.09 in 10.0 mi SSW 18.4 mph 24.2 mph N/A   Clear
8:55 PM 59.0 °F 51.8 °F 77% 30.10 in 10.0 mi SSW 18.4 mph 25.3 mph N/A   Clear
9:15 PM 57.2 °F 51.8 °F 82% 30.11 in 10.0 mi SSW 17.3 mph 23.0 mph N/A   Clear
9:35 PM 55.4 °F 53.6 °F 94% 30.12 in 7.0 mi SSW 17.3 mph 21.9 mph N/A   Clear
9:55 PM 55.4 °F 53.6 °F 94% 30.12 in 5.0 mi SSW 18.4 mph - N/A   Mostly Cloudy
10:15 PM 55.4 °F 53.6 °F 94% 30.14 in 7.0 mi SSW 12.7 mph - N/A   Overcast
10:35 PM 53.6 °F 53.6 °F 100% 30.14 in 7.0 mi SSW 17.3 mph 23.0 mph N/A   Overcast
10:55 PM 53.6 °F 53.6 °F 100% 30.15 in 7.0 mi SSW 16.1 mph - N/A   Overcast
11:15 PM 53.6 °F 51.8 °F 94% 30.15 in 7.0 mi SSW 12.7 mph - N/A   Overcast
11:35 PM 53.6 °F 51.8 °F 94% 30.16 in 5.0 mi SSW 13.8 mph 17.3 mph N/A   Overcast
11:55 PM 53.6 °F 51.8 °F 94% 30.16 in 7.0 mi SSW 13.8 mph - N/A   Overcast